Location: Krakow
(50.0830°N, 19.9170°E)
Time: 06:42:57
(UTC+02:00)

A-11 Canister half - Pass Details

Date: 19 March 2026
Orbit: 1523 x 1684 km, 47.3° (Epoch: 18 April)

Event Time Altitude Azimuth Distance (km) Brightness Sun altitude
Rises 11:41:48 0° 272° (W) 4,856 11.6 39.4°
Reaches altitude 10° 11:44:58 10° 271° (W) 3,848 11.2 39.5°
Maximum altitude 11:54:42 74° 189° (S) 1,633 10.3 39.4°
Drops below altitude 10° 12:04:05 10° 107° (ESE) 3,723 11.3 39.4°
Sets 12:07:06 0° 105° (ESE) 4,691 11.6 39.3°
